TAL18 NSFA-NSTU

Flight info

Callsign TAL18
Flight time 0h 28m
Altitude 17000
Route PONAT1S PONAT B577 ALOHI
Aircraft BE9L/L-SBDFGRY/SB1

Departure

Time 2026-05-06 18:43
Airport Faleolo International Airport (NSFA)

Arrival

Time 2026-05-06 19:12
Airport Pago Pago International Airport (NSTU)
Time Latitude Longitude Altitude Speed Heading
2026-05-06 18:34 -13.83185 -171.99782 40 ft 0 kts 261°
2026-05-06 18:40 -13.83185 -171.99783 40 ft 0 kts 261°
2026-05-06 18:40 -13.83185 -171.99782 40 ft 0 kts 261°
2026-05-06 18:40 -13.83147 -171.99776 39 ft 9 kts 42°
2026-05-06 18:40 -13.83088 -171.99750 36 ft 0 kts 357°
2026-05-06 18:42 -13.83086 -171.99750 36 ft 4 kts 357°
2026-05-06 18:42 -13.83022 -171.99751 34 ft 14 kts 359°
2026-05-06 18:42 -13.82987 -171.99858 33 ft 45 kts 268°
2026-05-06 18:42 -13.82993 -172.00482 71 ft 116 kts 272°
2026-05-06 18:43 -13.83017 -172.01349 508 ft 124 kts 270°
2026-05-06 18:43 -13.83055 -172.02249 952 ft 132 kts 272°
2026-05-06 18:43 -13.82792 -172.03140 1369 ft 137 kts 303°
2026-05-06 18:43 -13.82646 -172.04120 1759 ft 147 kts 262°
2026-05-06 18:44 -13.82848 -172.05142 2249 ft 145 kts 263°
2026-05-06 18:44 -13.82973 -172.06142 2731 ft 141 kts 267°
2026-05-06 18:44 -13.83039 -172.07185 3132 ft 151 kts 270°
2026-05-06 18:44 -13.83073 -172.08260 3636 ft 152 kts 271°
2026-05-06 18:45 -13.83093 -172.09349 4138 ft 153 kts 271°
2026-05-06 18:45 -13.83267 -172.10422 4636 ft 156 kts 240°
2026-05-06 18:45 -13.84079 -172.11102 5148 ft 154 kts 194°
2026-05-06 18:45 -13.84763 -172.11144 5487 ft 150 kts 165°
2026-05-06 18:46 -13.85766 -172.10292 6189 ft 147 kts 109°
2026-05-06 18:46 -13.86088 -172.09296 6720 ft 152 kts 105°
2026-05-06 18:46 -13.86402 -172.08238 7240 ft 157 kts 105°
2026-05-06 18:46 -13.86714 -172.07147 7757 ft 161 kts 105°
2026-05-06 18:47 -13.87040 -172.06014 8277 ft 164 kts 105°
2026-05-06 18:47 -13.87375 -172.04874 8791 ft 166 kts 106°
2026-05-06 18:47 -13.87719 -172.03723 9302 ft 167 kts 106°
2026-05-06 18:47 -13.88073 -172.02557 9820 ft 171 kts 107°
2026-05-06 18:48 -13.88432 -172.01375 10333 ft 175 kts 107°
2026-05-06 18:48 -13.88794 -172.00177 10839 ft 177 kts 107°
2026-05-06 18:48 -13.89160 -171.98964 11343 ft 179 kts 107°
2026-05-06 18:48 -13.89531 -171.97740 11846 ft 180 kts 107°
2026-05-06 18:49 -13.89902 -171.96515 12346 ft 180 kts 107°
2026-05-06 18:49 -13.90271 -171.95302 12822 ft 181 kts 108°
2026-05-06 18:49 -13.90666 -171.93997 12939 ft 199 kts 107°
2026-05-06 18:49 -13.91085 -171.92578 12914 ft 215 kts 107°
2026-05-06 18:50 -13.91540 -171.91057 12909 ft 226 kts 107°
2026-05-06 18:50 -13.92011 -171.89494 12906 ft 234 kts 107°
2026-05-06 18:50 -13.92505 -171.87868 12903 ft 240 kts 108°
2026-05-06 18:50 -13.93009 -171.86209 12902 ft 244 kts 108°
2026-05-06 18:51 -13.93522 -171.84518 12901 ft 247 kts 107°
2026-05-06 18:51 -13.94032 -171.82838 12900 ft 249 kts 107°
2026-05-06 18:51 -13.94553 -171.81117 12900 ft 251 kts 107°
2026-05-06 18:51 -13.95072 -171.79402 12899 ft 252 kts 107°
2026-05-06 18:52 -13.95604 -171.77644 12899 ft 253 kts 107°
2026-05-06 18:52 -13.96133 -171.75896 12899 ft 254 kts 107°
2026-05-06 18:52 -13.96657 -171.74164 12899 ft 255 kts 107°
2026-05-06 18:52 -13.97188 -171.72406 12898 ft 255 kts 107°
2026-05-06 18:53 -13.97719 -171.70648 12898 ft 255 kts 107°
2026-05-06 18:53 -13.98249 -171.68895 12898 ft 256 kts 107°
2026-05-06 18:53 -13.98778 -171.67140 12898 ft 256 kts 107°
2026-05-06 18:53 -13.99310 -171.65379 12898 ft 256 kts 107°
2026-05-06 18:54 -13.99838 -171.63626 12898 ft 256 kts 107°
2026-05-06 18:54 -14.00371 -171.61858 12898 ft 256 kts 107°
2026-05-06 18:54 -14.00902 -171.60100 12898 ft 256 kts 107°
2026-05-06 18:54 -14.01424 -171.58366 12898 ft 256 kts 107°
2026-05-06 18:55 -14.01955 -171.56602 12898 ft 256 kts 107°
2026-05-06 18:55 -14.02480 -171.54860 12898 ft 256 kts 107°
2026-05-06 18:55 -14.03018 -171.53073 12898 ft 256 kts 107°
2026-05-06 18:55 -14.03542 -171.51334 12898 ft 256 kts 107°
2026-05-06 18:56 -14.04076 -171.49558 12898 ft 256 kts 107°
2026-05-06 18:56 -14.04598 -171.47824 12897 ft 256 kts 107°
2026-05-06 18:56 -14.05129 -171.46059 12897 ft 256 kts 107°
2026-05-06 18:56 -14.05655 -171.44308 12897 ft 256 kts 107°
2026-05-06 18:57 -14.06183 -171.42554 12897 ft 256 kts 107°
2026-05-06 18:57 -14.06715 -171.40781 12897 ft 256 kts 107°
2026-05-06 18:57 -14.07243 -171.39023 12897 ft 256 kts 107°
2026-05-06 18:57 -14.07763 -171.37293 12897 ft 256 kts 107°
2026-05-06 18:58 -14.08296 -171.35516 12897 ft 256 kts 107°
2026-05-06 18:58 -14.08828 -171.33769 12899 ft 256 kts 109°
2026-05-06 18:58 -14.09449 -171.32045 12892 ft 257 kts 111°
2026-05-06 18:58 -14.10124 -171.30324 12887 ft 257 kts 112°
2026-05-06 18:59 -14.10806 -171.28618 12888 ft 257 kts 112°
2026-05-06 18:59 -14.11485 -171.26921 12888 ft 257 kts 112°
2026-05-06 18:59 -14.12159 -171.25220 12888 ft 257 kts 112°
2026-05-06 18:59 -14.12834 -171.23503 12888 ft 257 kts 112°
2026-05-06 19:00 -14.13498 -171.21800 12888 ft 257 kts 112°
2026-05-06 19:00 -14.14170 -171.20070 12888 ft 257 kts 111°
2026-05-06 19:00 -14.14829 -171.18372 12888 ft 257 kts 111°
2026-05-06 19:00 -14.15492 -171.16658 12888 ft 257 kts 111°
2026-05-06 19:01 -14.16163 -171.14920 12888 ft 257 kts 111°
2026-05-06 19:01 -14.16820 -171.13219 12888 ft 257 kts 111°
2026-05-06 19:01 -14.17484 -171.11496 12888 ft 257 kts 111°
2026-05-06 19:01 -14.18144 -171.09781 12888 ft 257 kts 111°
2026-05-06 19:02 -14.18798 -171.08081 12888 ft 257 kts 111°
2026-05-06 19:02 -14.19465 -171.06349 12888 ft 257 kts 111°
2026-05-06 19:02 -14.20123 -171.04636 12747 ft 257 kts 111°
2026-05-06 19:02 -14.20757 -171.02948 12374 ft 252 kts 111°
2026-05-06 19:03 -14.21317 -171.01242 11992 ft 249 kts 116°
2026-05-06 19:03 -14.22476 -170.99991 11624 ft 247 kts 148°
2026-05-06 19:03 -14.24044 -170.99283 11263 ft 245 kts 158°
2026-05-06 19:03 -14.25635 -170.98659 10889 ft 244 kts 159°
2026-05-06 19:04 -14.27214 -170.98061 10511 ft 239 kts 159°
2026-05-06 19:04 -14.28763 -170.97481 10134 ft 236 kts 159°
2026-05-06 19:04 -14.30287 -170.96909 9759 ft 233 kts 159°
2026-05-06 19:04 -14.31803 -170.96335 9383 ft 231 kts 159°
2026-05-06 19:05 -14.33317 -170.95760 9003 ft 229 kts 159°
2026-05-06 19:05 -14.34803 -170.95190 8629 ft 228 kts 159°
2026-05-06 19:05 -14.36283 -170.94624 8253 ft 227 kts 159°
2026-05-06 19:05 -14.37756 -170.94058 7876 ft 223 kts 159°
2026-05-06 19:06 -14.39217 -170.93492 7293 ft 223 kts 159°
2026-05-06 19:06 -14.40669 -170.92934 6669 ft 224 kts 160°
2026-05-06 19:06 -14.42111 -170.92323 6041 ft 225 kts 150°
2026-05-06 19:06 -14.43220 -170.91180 5413 ft 227 kts 121°
2026-05-06 19:07 -14.43652 -170.89651 4805 ft 229 kts 93°
2026-05-06 19:07 -14.43294 -170.88046 4182 ft 230 kts 63°
2026-05-06 19:07 -14.42490 -170.86639 3573 ft 231 kts 58°
2026-05-06 19:07 -14.41671 -170.85217 3054 ft 225 kts 60°
2026-05-06 19:08 -14.40856 -170.83917 2793 ft 210 kts 57°
2026-05-06 19:08 -14.40089 -170.82667 2521 ft 199 kts 58°
2026-05-06 19:08 -14.39379 -170.81482 2254 ft 190 kts 59°
2026-05-06 19:08 -14.38725 -170.80383 1993 ft 174 kts 59°
2026-05-06 19:09 -14.38138 -170.79399 1821 ft 149 kts 59°
2026-05-06 19:09 -14.37626 -170.78540 1600 ft 136 kts 59°
2026-05-06 19:09 -14.37113 -170.77679 1398 ft 141 kts 58°
2026-05-06 19:09 -14.36590 -170.76813 1173 ft 137 kts 58°
2026-05-06 19:10 -14.36108 -170.76004 966 ft 128 kts 58°
2026-05-06 19:10 -14.35656 -170.75243 774 ft 122 kts 58°
2026-05-06 19:10 -14.35220 -170.74512 604 ft 116 kts 58°
2026-05-06 19:10 -14.34806 -170.73817 444 ft 112 kts 58°
2026-05-06 19:11 -14.34404 -170.73143 286 ft 106 kts 58°
2026-05-06 19:11 -14.34032 -170.72501 130 ft 102 kts 59°
2026-05-06 19:11 -14.33692 -170.71878 34 ft 94 kts 58°
2026-05-06 19:11 -14.33395 -170.71350 20 ft 65 kts 60°
2026-05-06 19:12 -14.33243 -170.71088 17 ft 31 kts 59°
2026-05-06 19:12 -14.33152 -170.70949 16 ft 11 kts 14°
2026-05-06 19:12 -14.33085 -170.70978 17 ft 12 kts 320°
2026-05-06 19:12 -14.33016 -170.71036 18 ft 13 kts 322°
2026-05-06 19:13 -14.32938 -170.71103 19 ft 14 kts 318°
2026-05-06 19:13 -14.32863 -170.71176 22 ft 14 kts 313°
2026-05-06 19:13 -14.32873 -170.71254 22 ft 4 kts 17°
2026-05-06 19:13 -14.32867 -170.71252 22 ft 0 kts 23°